| time (UTC) | temp C | wind direction | speed KPH | gust KPH | rain 1hr cm | rain 24hr cm | rain mn cm | humidity % | barometer mb |
| 20260504081607 | 6 | 289 | 0.0 | 0.0 | 0.00 | 0.00 | 0.00 | 82 | 1001.6 |
| 20260504044534 | 3 | 289 | 0.0 | 0.0 | 0.00 | 0.00 | 0.00 | 80 | 1002.4 |
| 20260504043031 | 3 | 289 | 0.0 | 0.0 | 0.00 | 0.00 | 0.00 | 79 | 1002.3 |
| 20260504041529 | 3 | 289 | 0.0 | 0.0 | 0.00 | 0.00 | 0.00 | 77 | 1002.3 |
| 20260504040026 | 4 | 289 | 0.0 | 0.0 | 0.00 | 0.00 | 0.00 | 76 | 1002.3 |
| 20260504034526 | 5 | 289 | 0.0 | 0.0 | 0.00 | 0.00 | 0.00 | 74 | 1002.1 |
| 20260504033029 | 5 | 289 | 0.0 | 0.0 | 0.00 | 0.00 | 0.00 | 71 | 1002.0 |
| 20260504031524 | 5 | 289 | 0.0 | 0.0 | 0.00 | 0.00 | 0.00 | 66 | 1002.0 |
| 20260504030024 | 6 | 289 | 0.0 | 0.0 | 0.00 | 0.00 | 0.00 | 68 | 1002.0 |
| 20260504024523 | 6 | 289 | 0.0 | 0.0 | 0.00 | 0.00 | 0.00 | 69 | 1001.8 |
| 20260504023023 | 6 | 289 | 0.0 | 0.0 | 0.00 | 0.00 | 0.00 | 67 | 1001.8 |
| 20260504021522 | 6 | 289 | 0.0 | 0.0 | 0.00 | 0.00 | 0.00 | 66 | 1001.7 |
| 20260504020025 | 7 | 289 | 0.0 | 0.0 | 0.00 | 0.00 | 0.00 | 62 | 1001.6 |
| 20260504014539 | 7 | 289 | 0.0 | 0.0 | 0.00 | 0.00 | 0.00 | 59 | 1001.5 |
| 20260504013021 | 7 | 289 | 0.0 | 0.0 | 0.00 | 0.00 | 0.00 | 59 | 1001.6 |
| 20260504011521 | 8 | 289 | 0.0 | 0.0 | 0.00 | 0.00 | 0.00 | 53 | 1001.3 |
| 20260504010020 | 9 | 289 | 0.0 | 0.0 | 0.00 | 0.00 | 0.00 | 49 | 1001.2 |
| 20260504004520 | 10 | 289 | 0.0 | 0.0 | 0.00 | 0.00 | 0.00 | 47 | 1001.2 |
| 20260504003018 | 11 | 289 | 0.0 | 0.0 | 0.00 | 0.00 | 0.00 | 41 | 1001.2 |
| 20260504001521 | 13 | 289 | 0.0 | 0.0 | 0.00 | 0.00 | 0.00 | 36 | 1001.0 |
| 20260504000035 | 13 | 284 | 0.0 | 0.0 | 0.00 | 0.00 | 0.00 | 35 | 1000.8 |
| 20260503234517 | 15 | 284 | 0.0 | 0.0 | 0.00 | 0.00 | 0.00 | 33 | 1000.8 |
| 20260503233020 | 16 | 278 | 0.0 | 0.0 | 0.00 | 0.00 | 0.00 | 31 | 1000.6 |
| 20260503231516 | 17 | 301 | 0.0 | 1.6 | 0.00 | 0.00 | 0.00 | 29 | 1000.6 |
| 20260503230020 | 17 | 267 | 0.0 | 0.0 | 0.00 | 0.00 | 0.00 | 29 | 1000.6 |
| 20260503224515 | 17 | 18 | 0.0 | 0.0 | 0.00 | 0.00 | 0.00 | 28 | 1000.4 |
| 20260503223013 | 17 | 330 | 0.0 | 0.0 | 0.00 | 0.00 | 0.00 | 28 | 1000.4 |
| 20260503221512 | 17 | 305 | 0.0 | 1.6 | 0.00 | 0.00 | 0.00 | 28 | 1000.7 |
| 20260503220019 | 17 | 214 | 0.0 | 17.7 | 0.00 | 0.00 | 0.00 | 28 | 1000.6 |
| 20260503214522 | 17 | 276 | 0.0 | 3.2 | 0.00 | 0.00 | 0.00 | 30 | 1000.7 |
| 20260503213011 | 17 | 210 | 0.0 | 3.2 | 0.00 | 0.00 | 0.00 | 28 | 1000.7 |
| 20260503211512 | 17 | 293 | 0.0 | 1.6 | 0.00 | 0.00 | 0.00 | 28 | 1000.7 |
| 20260503210028 | 17 | 278 | 0.0 | 8.0 | 0.00 | 0.00 | 0.00 | 28 | 1000.6 |
| 20260503204511 | 17 | 342 | 0.0 | 6.4 | 0.00 | 0.00 | 0.00 | 27 | 1000.6 |
| 20260503203013 | 18 | 303 | 0.0 | 3.2 | 0.00 | 0.00 | 0.00 | 32 | 1000.7 |
| 20260503201506 | 17 | 244 | 0.0 | 0.0 | 0.00 | 0.00 | 0.00 | 31 | 1000.9 |
| 20260503200004 | 17 | 233 | 0.0 | 0.0 | 0.00 | 0.00 | 0.00 | 27 | 1001.3 |
| 20260503194503 | 17 | 314 | 0.0 | 9.7 | 0.00 | 0.00 | 0.00 | 28 | 1001.4 |
| 20260503193002 | 17 | 293 | 0.0 | 0.0 | 0.00 | 0.00 | 0.00 | 30 | 1001.5 |
| 20260503191608 | 17 | 294 | 0.0 | 1.6 | 0.00 | 0.00 | 0.00 | 30 | 1001.8 |
| 20260503190103 | 17 | 321 | 0.0 | 9.7 | 0.00 | 0.00 | 0.00 | 31 | 1002.0 |
| 20260503184600 | 16 | 296 | 0.0 | 1.6 | 0.00 | 0.00 | 0.00 | 33 | 1002.1 |
| 20260503183105 | 16 | 279 | 0.0 | 0.0 | 0.00 | 0.00 | 0.00 | 29 | 1002.3 |
| 20260503181553 | 16 | 252 | 0.0 | 11.3 | 0.00 | 0.00 | 0.00 | 32 | 1002.3 |
| 20260503180105 | 15 | 339 | 3.2 | 17.7 | 0.00 | 0.00 | 0.00 | 29 | 1002.6 |
| 20260503174551 | 15 | 189 | 3.2 | 20.9 | 0.00 | 0.00 | 0.00 | 32 | 1002.7 |
| 20260503173136 | 15 | 172 | 0.0 | 19.3 | 0.00 | 0.00 | 0.00 | 36 | 1002.8 |
| 20260503171548 | 15 | 118 | 0.0 | 11.3 | 0.00 | 0.00 | 0.00 | 38 | 1003.1 |
| 20260503120113 | 6 | 283 | 0.0 | 0.0 | 0.00 | 0.00 | 0.00 | 63 | 1004.5 |